Location: Unspecified
(46.0725°N, 13.7344°E)
Time: 09:57:43
(UTC+02:00)

Cosmos 2058 - Pass Details

Date: 19 June 2024
Orbit: 545 x 564 km, 82.5° (Epoch: 17 July)

Event Time Altitude Azimuth Distance (km) Brightness Sun altitude
Exits shadow 03:03:19 - 148° (SSE) 1,915 5.3 -15.6°
Reaches altitude 10° 03:03:32 10° 146° (SE) 1,838 5.2 -15.6°
Maximum altitude 03:06:55 26° 89° (E) 1,125 4.7 -15.3°
Drops below altitude 10° 03:10:20 10° 33° (NNE) 1,862 6.9 -15.0°
Sets 03:12:46 0° 20° (NNE) 2,767 8.2 -14.8°
